Location: Central Falls
(41.8900°N, 71.3929°W)
Time: 04:32:31
(UTC+00:00)

Tiros 1 - Pass Details

Date: 15 December 2023
Orbit: 625 x 658 km, 48.4° (Epoch: 01 March)

Event Time Altitude Azimuth Distance (km) Brightness Sun altitude
Rises 04:59:56 0° 229° (SW) 2,938 - -70.9°
Reaches altitude 10° 05:02:16 10° 226° (SW) 2,037 - -70.8°
Maximum altitude 05:06:54 61° 146° (SE) 738 - -70.6°
Drops below altitude 10° 05:11:36 10° 67° (ENE) 2,066 - -70.3°
Sets 05:13:59 0° 64° (ENE) 2,983 - -70.1°
